This demonstration page uses our WeatherBlox Daily Observations layout. Learn more.

Left ArrowRight Arrow

Hourly Observations for October 3, 2018

Temp ( °F °C ) Dew Point ( °F °C ) Humidity (%) Winds ( mph kmh ) Pressure ( in mb ) Visibility ( mi km ) Precip ( " mm )
12:53 am 00:53 Partly Cloudy 70 21.1 61 16.1 73 73 S 14 22 29.75 1007 10 16 0.00 0.00
1:53 am 01:53 Mostly Cloudy 70 21.1 62 16.7 76 76 S 13 20 29.73 1007 10 16 0.00 0.00
2:53 am 02:53 Clear 70 21.1 63 17.2 79 79 S 14 22 29.69 1005 10 16 0.00 0.00
3:53 am 03:53 Clear 70 21.1 64 17.8 82 82 S 14 22 29.65 1004 10 16 0.00 0.00
4:53 am 04:53 Clear 70 21.1 65 18.3 84 84 S 13 20 29.64 1004 10 16 0.00 0.00
5:53 am 05:53 Clear 69 20.6 65 18.3 87 87 S 10 17 29.62 1003 10 16 0.00 0.00
6:53 am 06:53 Clear 69 20.6 64 17.8 84 84 S 12 19 29.61 1003 10 16 0.00 0.00
7:53 am 07:53 Sunny 69 20.6 64 17.8 84 84 S 12 19 29.60 1003 10 16 0.00 0.00
8:53 am 08:53 Sunny 71 21.7 64 17.8 79 79 S 14 22 29.60 1002 10 16 0.00 0.00
9:53 am 09:53 Sunny 75 23.9 64 17.8 69 69 SSW 18 30 29.60 1002 10 16 0.00 0.00
10:53 am 10:53 Sunny 78 25.6 62 16.7 58 58 SW 15 24 29.60 1002 10 16 0.00 0.00
11:53 am 11:53 Sunny 82 27.8 62 16.7 51 51 SW 13 20 29.59 1002 10 16 0.00 0.00
12:53 pm 12:53 Sunny 86 30 60 15.6 42 42 SW 9 15 29.60 1002 10 16 0.00 0.00
1:53 pm 13:53 Sunny 90 32.2 55 12.8 31 31 W 20 31 29.60 1002 10 16 0.00 0.00
2:53 pm 14:53 Sunny 93 33.9 52 11.1 25 25 W 21 33 29.60 1002 10 16 0.00 0.00
3:53 pm 15:53 Sunny 93 33.9 50 10 23 23 WNW 15 24 29.61 1003 10 16 0.00 0.00
4:53 pm 16:53 Sunny 93 33.9 47 8.3 21 21 NNW 17 28 29.65 1004 10 16 0.00 0.00
5:32 pm 17:32 Hazy 81 27 55 13 42 42 N 38 61 29.68 1005 5 8 0.00 0.00
5:53 pm 17:53 Sunny 75 23.9 55 12.8 50 50 N 35 56 29.77 1008 8 13 0.00 0.00
6:53 pm 18:53 Sunny 66 18.9 50 10 56 56 N 30 48 29.89 1012 10 16 0.00 0.00
7:53 pm 19:53 Clear 63 17.2 46 7.8 54 54 N 23 37 29.94 1014 10 16 0.00 0.00
8:53 pm 20:53 Clear 60 15.6 42 5.6 52 52 N 26 43 29.98 1015 10 16 0.00 0.00
9:53 pm 21:53 Clear 58 14.4 42 5.6 56 56 N 20 31 30.00 1016 10 16 0.00 0.00
10:53 pm 22:53 Clear 55 12.8 42 5.6 62 62 N 18 30 30.04 1017 10 16 0.00 0.00
11:53 pm 23:53 Clear 51 10.6 39 3.9 64 64 N 17 28 30.07 1018 10 16 0.00 0.00

Powered by AerisWeather